George, South Africa

7:58 AM SAST on August 21, 2017 (GMT +0200)
George

Weather History for FAGG - September, 2012

Change the Weather History Date:

Tuesday, September 4, 2012

  Actual Average Record
Temperature  
Mean Temperature 52 °F -  
Max Temperature 61 °F 64 °F 80 °F (2004)
Min Temperature 43 °F 47 °F 41 °F (2013)
Degree Days  
Heating Degree Days 13    
Growing Degree Days 2 (Base 50)    
Moisture  
Dew Point 42 °F    
Average Humidity 69    
Maximum Humidity 87    
Minimum Humidity 40    
Precipitation  
Precipitation 0.00 in - - ()
Sea Level Pressure  
Sea Level Pressure 30.28 in    
Wind  
Wind Speed 7 mph ()    
Max Wind Speed 23 mph    
Max Gust Speed -    
Visibility 7.7 miles    
Events      
Averages and records for this station are not official NWS values.
T = Trace of Precipitation, MM = Missing Value Source: Averaged Metar Reports

Daily Weather History Graph

Daily Weather History Graph

Search for Another Location

Airport or City:

Trip Planner

Search our weather history database for the weather conditions in past years. The results will help you decide how hot, cold, wet, or windy it might be!

Date:

Astronomy

Sep. 04, 2012 Rise Set
Actual Time 6:44 AM SAST 6:14 PM SAST
Civil Twilight 6:19 AM SAST 6:39 PM SAST
Nautical Twilight 5:50 AM SAST 7:08 PM SAST
Astronomical Twilight 5:21 AM SAST 7:37 PM SAST
Moon 10:10 PM SAST (9/4) 8:30 AM SAST (9/4)
Length of Visible Light 12h 20m
Length of Day
11h 30m
Waning Gibbous, 85% of the Moon is Illuminated
Sep 4
Waning Gibbous
Sep 8
Last Quarter
Sep 16
New
Sep 22
First Quarter
Sep 30
Full

Hourly Weather History & Observations

Time (SAST) Temp. Windchill Dew Point Humidity Pressure Visibility Wind Dir Wind Speed Gust Speed Precip Events Conditions
12:00 AM 48.2 °F - 42.8 °F 82% 30.36 in 6.2 mi NW 3.5 mph - N/A   Mostly Cloudy
1:00 AM 48.2 °F - 42.8 °F 82% 30.36 in 6.2 mi NW 3.5 mph - N/A   Mostly Cloudy
2:00 AM 47 °F - 44 °F 84% 30.38 in 12 mi NW 2.3 mph - -  
2:00 AM 46.4 °F - 42.8 °F 87% 30.36 in 6.2 mi NW 2.3 mph - N/A   Mostly Cloudy
3:00 AM 48.2 °F - 42.8 °F 82% 30.33 in 6.2 mi Calm Calm - N/A   Overcast
4:00 AM 46.4 °F - 42.8 °F 87% 30.33 in 6.2 mi North 2.3 mph - N/A   Mostly Cloudy
5:00 AM 44 °F - 40 °F 79% 30.33 in 12 mi NNE 4.6 mph - -   Partly Cloudy
5:00 AM 44.6 °F 42.2 °F 39.2 °F 81% 30.30 in 6.2 mi NNE 4.6 mph - N/A   Scattered Clouds
6:00 AM 42.8 °F - 37.4 °F 81% 30.33 in 6.2 mi NE 2.3 mph - N/A   Scattered Clouds
7:00 AM 44.6 °F - 39.2 °F 81% 30.33 in 6.2 mi ENE 2.3 mph - N/A   Mostly Cloudy
8:00 AM 46 °F - 41 °F 76% 30.35 in 12 mi NE 4.6 mph - -   Partly Cloudy
8:00 AM 46.4 °F 44.3 °F 41.0 °F 81% 30.33 in 6.2 mi NE 4.6 mph - N/A   Scattered Clouds
9:00 AM 53.6 °F - 42.8 °F 67% 30.33 in 6.2 mi ENE 10.4 mph - N/A   Partly Cloudy
10:00 AM 57.2 °F - 39.2 °F 51% 30.33 in 6.2 mi East 10.4 mph - N/A   Partly Cloudy
11:00 AM 58 °F - 40 °F 40% 30.33 in 12 mi East 13.8 mph - -   Scattered Clouds
11:00 AM 59.0 °F - 41.0 °F 51% 30.33 in 6.2 mi East 13.8 mph - N/A   Partly Cloudy
12:00 PM 59.0 °F - 41.0 °F 51% 30.30 in 6.2 mi ESE 17.3 mph - N/A   Partly Cloudy
1:00 PM 60.8 °F - 46.4 °F 59% 30.27 in 6.2 mi ESE 15.0 mph - N/A   Partly Cloudy
2:00 PM 60 °F - 44 °F 45% 30.26 in 12 mi ESE 18.4 mph - -   Scattered Clouds
2:00 PM 59.0 °F - 42.8 °F 55% 30.24 in 6.2 mi ESE 18.4 mph - N/A   Partly Cloudy
3:00 PM 59.0 °F - 44.6 °F 59% 30.21 in 6.2 mi ESE 20.7 mph - N/A   Partly Cloudy
4:00 PM 59.0 °F - 44.6 °F 59% 30.21 in 6.2 mi ESE 23.0 mph - N/A   Partly Cloudy
5:00 PM 57 °F - 45 °F 54% 30.22 in 12 mi East 19.6 mph - -   Scattered Clouds
5:00 PM 57.2 °F - 44.6 °F 63% 30.21 in 6.2 mi East 19.6 mph - N/A   Partly Cloudy
6:00 PM 55.4 °F - 44.6 °F 67% 30.21 in 6.2 mi ESE 20.7 mph - N/A   Partly Cloudy
7:00 PM 53.6 °F - 44.6 °F 72% 30.21 in 6.2 mi East 13.8 mph - N/A   Partly Cloudy
8:00 PM 52 °F - 43 °F 64% 30.22 in 12 mi East 11.5 mph - -   Scattered Clouds
8:00 PM 51.8 °F - 42.8 °F 71% 30.21 in 6.2 mi East 11.5 mph - N/A   Partly Cloudy
9:00 PM 50.0 °F - 42.8 °F 76% 30.21 in - East 9.2 mph - N/A   Clear
10:00 PM 50.0 °F - 42.8 °F 76% 30.18 in - East 9.2 mph - N/A   Clear
11:00 PM 50.0 °F - 41.0 °F 71% 30.18 in - East 9.2 mph - N/A   Clear